sat.trackr.live / text

‹ back to catalog

ARVAKER-3

NORAD 64566 · 2025-135AQ

PAYLOAD ACTIVE UNKNOWN

§ Identity

Operator
Country
NOR
Launch date
2025-06-23
Launch site
AFWTR
Launch vehicle
Mass (kg)
RCS (m²)

External: N2YO · Heavens-Above · Gunter

§ Orbital elements

Epoch: 2026-05-25T05:53:30.462144Z

Period
96.42 min
Inclination
97.7701°
Eccentricity
0.0002582
Mean motion
14.93503980 rev/d
Perigee alt
585.2 km
Apogee alt
588.8 km
Semi-major
6,965.2 km
B*
1.7622e-4
RAAN
259.6327°
Arg perigee
54.1922°
Mean anomaly
305.9538°
Rev number
5,045

§ Raw data

ARVAKER-31 64566U 25135AQ  26145.24549146  .00001798  00000+0  17622-3 0  99912 64566  97.7701 259.6327 0002582  54.1922 305.9538 14.93503980 50453

JSON: /api/v1/satellites/64566 · /tle

For live sub-satellite position, see the globe view (requires WebGL).

§ Visibility from observer

Set your observer location to see the next 7 days of passes ≥ 10°. The values pass through the URL so the page stays shareable.

No JS? Fill the form by hand. The geolocation button needs JavaScript.